* Astronomy

Members Login
Username 
 
Password 
    Remember Me  
Post Info TOPIC: Delta-2 rocket body re-entry


L

Posts: 131433
Date:
RE: Delta-2 rocket body re-entry
Permalink  
 


Update
The Delta-2 rocket body is predicted to re-enter the Earths atmosphere on the 21st June, 2011 @ 23:00 GMT  ± 4 hours.

DELTA 2 RB
1 29602U 06052B 11172.70072711 .27945943 44970-5 60232-3 0 6859
2 29602 039.7492 329.7328 0139079 170.3028 203.6194 16.21462672118225

Period:       89.55 minutes
Inclination: 39.73°
Apogee:     381 km
Perigee:     123 km
Revolution Number: 11827
Predicted Location:  38.7°N, 147.8°E



__________________


L

Posts: 131433
Date:
Permalink  
 

Update
The Delta-2 rocket body is predicted to re-enter the Earths atmosphere on the 22nd June, 2011 @ 01:09 GMT  ± 8 hours.

DELTA2RB.gif

DELTA 2 RB
1 29602U 06052B 11172.46114822 .18060701 46690-5 45368-3 0 6834
2 29602 039.7333 331.3582 0194528 166.6722 252.6225 16.08032321118182

Period:       93.06 minutes
Inclination: 39.78°
Apogee:     715 km
Perigee:     133 km
Revolution Number: 11823
Predicted Location:  34.8°S, 277.8°E



__________________


L

Posts: 131433
Date:
Permalink  
 

Update
The Delta-2 rocket body is predicted to re-enter the Earths atmosphere on the 21st June, 2011 @ 23:34 GMT  ± 15 hours.

DELTA 2 RB
1 29602U 06052B 11172.16789721 .14678243 52075-5 52580-3 0 6826
2 29602 039.7755 333.2919 0234773 164.1810 000.6251 15.96534026118133

Period:       93.06 minutes
Inclination: 39.78°
Apogee:     715 km
Perigee:     133 km
Revolution Number: 11823
Predicted Location:  22.2°S, 274.8°E



__________________


L

Posts: 131433
Date:
Permalink  
 

Update
The Delta-2 rocket body is predicted to re-enter the Earths atmosphere on the 21st June, 2011 @ 17:41 GMT  ± 24 hours.

DELTA 2 RB
1 29602U 06052B 11170.83405046 .09913198 52381-5 56796-3 0 6764
2 29602 039.7787 341.8556 0365075 153.3195 340.5272 15.63341192117925

Period:       93.06 minutes
Inclination: 39.78°
Apogee:     715 km
Perigee:     133 km
Revolution Number: 11823
Predicted Location:  34.9°S, 32.5°E



__________________


L

Posts: 131433
Date:
Permalink  
 

Update
The Delta-2 rocket body is predicted to re-enter the Earths atmosphere on the 21st June, 2011 @ 19:05 GMT  ± 48 hours.

DELTA 2 RB
1 29602U 06052B 11169.78509868 .06695603 53530-5 31178-3 0 6728
2 29602 039.8035 348.4172 0450844 145.7481 232.0941 15.44426784117761

Period:       93.97 minutes
Inclination: 39.78°
Apogee:     804 km
Perigee:     133 km
Revolution Number: 11825
Predicted Location:  29.3°S, 356.4°E



__________________


L

Posts: 131433
Date:
Permalink  
 

Update
The Delta-2 rocket body is predicted to re-enter the Earths atmosphere on the 21st June, 2011 @ 22:26 GMT  ± 48 hours.

DELTA 2 RB
1 29602U 06052B 11168.83093409 .06706883 53080-5 57442-3 0 6682
2 29602 039.7850 354.1333 0491676 137.5036 349.9496 15.31329749117617

Period:       94.70 minutes
Inclination: 39.78°
Apogee:     875 km
Perigee:     134 km
Revolution Number: 11826
Predicted Location:  32.5°S, 33°E



__________________


L

Posts: 131433
Date:
Permalink  
 

A Delta-2 rocket body that was launched on the 17th November, 2006, from the Cape Canaveral, for the NAVSTAR GPS 2R-16 (M3) satellite mission is predicted to re-enter the Earths atmosphere on the 21st June, 2011 @ --:-- GMT  ± -- hours.

DELTA 2 RB
1 29602U 06052B 11161.11243934 .03916773 53173-5 66047-3 0 6420
2 29602 039.7892 037.8847 0781682 082.0381 286.8282 14.59814833116460

Period:       98.99 minutes
Inclination: 39.79°
Apogee:     1281 km
Perigee:     140 km
Revolution Number: -
Predicted Location:  -



__________________
Page 1 of 1  sorted by
 
Quick Reply

Please log in to post quick replies.



Create your own FREE Forum
Report Abuse
Powered by ActiveBoard